Location: Puketoi
(40.5833°S, 176.0167°E)
Time: 13:25:07
(UTC+00:00)

CZ-2C R/B - Pass Details

Date: 08 February 2023
Orbit: 703 x 907 km, 98.1° (Epoch: 23 March)

Event Time Altitude Azimuth Distance (km) Brightness Sun altitude
Exits shadow 15:28:24 24° 13° (NNE) 1,471 4.2 -20.8°
Maximum altitude 15:31:21 88° 289° (WNW) 726 2.8 -20.4°
Drops below altitude 10° 15:36:10 10° 193° (SSW) 2,205 5.7 -19.7°
Sets 15:38:26 0° 192° (SSW) 3,132 6.6 -19.4°
